SCP
0 0 0 0 0 0 0 0 0 0 0 0 0 0 0 0 0 0 0 0 0 0 0 0 0 0 0 0 0 0 0 0 0 0 0 0 0 0 0 0 0 0 0 0 0 0 0 0 0 0 0 0 0 0
0 0 0 0 0 0 0 0 0 0 0 0 0 0 0 0 0 0 0 0 0 0 0 0 0 0 0 0 0 0 0 0 0 0 0 0 0 0 0 0 0 0 0 0 0 0 0 0 0 0 0 0 0 0
0 0 0 0 0 0 0 0 0 0 0 0 0 0 0 0 0 0 0 0 0 0 0 0 0 0 0 0 0 0 0 0 0 0 0 0 0 0 0 0 0 0 0 0 0 0 0 0 0 0 0 0 0 0
0 0 0 0 0 0 0 0 0 0 0 0 0 0 0 0 0 0 0 0 0 0 0 0 0 0 0 0 0 0 0 0 0 0 0 0 0 0 0 0 0 0 0 0 0 0 0 0 0 0 0 0 0 0
0 0 0 0 0 0 0 0 0 0 0 0 0 0 0 0 0 0 0 0 0 0 0 0 0 0 0 0 0 0 0 0 0 0 0 0 0 0 0 0 0 0 0 0 0 0 0 0 0 0 0 0 0 0
0 0 0 0 0 0 0 0 0 0 0 0 0 0 0 0 0 0 0 0 0 0 0 0 0 0 0 0 0 0 0 0 0 0 0 0 0 0 0 0 0 0 0 0 0 0 0 0 0 0 0 0 0 0
0 0 0 0 0 0 0 0 0 0 0 0 0 0 0 0 0 0 0 0 0 0 0 0 0 0 0 0 0 0 0 0 0 0 0 0 0 0 0 0 0 0 0 0 0 0 0 0 0 0 0 0 0 0
0 0 0 0 0 0 0 0 0 0 0 0 0 0 0 0 0 0 0 0 0 0 0 0 0 0 0 0 0 0 0 0 0 0 0 0 0 0 0 0 0 0 0 0 0 0 0 0 0 0 0 0 0 0
0 0 0 0 0 0 0 0 0 0 0 0 0 0 0 0 0 0 0 0 0 0 0 0 0 0 0 0 0 0 0 0 0 0 0 0 0 0 0 0 0 0 0 0 0 0 0 0 0 0 0 0 0 0
0 0 0 0 0 0 0 0 0 0 0 0 0 0 0 0 0 0 0 0 0 0 0 0 0 0 0 0 0 0 0 0 0 0 0 0 0 0 0 0 0 0 0 0 0 0 0 0 0 0 0 0 0 0
0 0 0 0 0 0 0 0 0 0 0 0 0 0 0 0 0 0 0 0 0 0 0 0 0 0 0 0 0 0 0 0 0 0 0 0 0 0 0 0 0 0 0 0 0 0 0 0 0 0 0 0 0 0
0 0 0 0 0 0 0 0 0 0 0 0 0 0 0 0 0 0 0 0 0 0 0 0 0 0 0 0 0 0 0 0 0 0 0 0 0 0 0 0 0 0 0 0 0 0 0 0 0 0 0 0 0 0
0 0 0 0 0 0 0 0 0 0 0 0 0 0 0 0 0 0 0 0 0 0 0 0 0 0 0 0 0 0 0 0 0 0 0 0 0 0 0 0 0 0 0 0 0 0 0 0 0 0 0 0 0 0
0 -0 -0 -0 -0 0 0 0 0 0 0 0 0 0 0 0 0 0 0 0 0 0 0 0 0 0 0 0 0 0 0 0 0 0 0 0 0 0 0 0 0 0 0 0 0 0 0 0 0 0 0 0 0 0
0 0 0 -0 -0 -0 0 0 0 0 0 0 0 0 0 0 0 0 0 0 0 0 0 0 0 0 0 0 0 0 0 0 0 0 0 0 0 0 0 0 0 0 0 0 0 0 0 0 0 0 0 0 0 0
0 -0 0 0 0 0 0 0 0 0 0 0 0 0 0 0 0 0 0 0 0 0 0 0 0 0 0 0 0 0 0 0 0 0 0 0 0 0 0 0 -0 -0 -0 -0 -0 0 0 0 0 0 0 0 0 0
-0 0 0 -0 0 0 0 0 0 0 0 0 0 0 0 0 0 0 0 0 0 0 0 0 0 0 0 0 0 0 0 0 0 0 0 0 0 0 0 0 0 0 0 0 -0 0 0 0 0 0 0 0 0 0
0 0 0 0 0 0 0 0 0 0 0 0 0 0 0 0 0 0 0 0 0 0 0 0 0 0 0 0 0 0 0 0 0 0 0 0 0 0 0 0 0 0 0 0 0 0 -0 0 0 0 0 0 0 0
-0 -0 0 0 0 0 0 0 0 0 0 0 0 0 0 0 0 0 0 0 0 0 0 0 0 0 0 0 0 0 0 0 0 0 0 0 0 0 0 0 0 0 0 0 0 0 0 0 0 0 0 0 0 0
-0 -0 -0 -0 0 0 0 0 0 0 0 0 0 0 0 0 0 0 0 0 0 0 0 0 0 0 0 0 0 0 0 0 0 0 0 0 0 0 0 0 0 0 0 -0 0 0 0 0 0 0 0 0 0 0
-0 -0 -0 -0 0 0 0 0 0 -0 0 0 0 0 0 0 0 0 0 0 0 0 0 0 0 0 0 0 0 0 0 0 0 0 0 0 0 0 0 0 0 0 0 0 0 0 0 0 0 0 0 0 0 0
0 -0 -0 -0 -0 0 0 0 0 0 0 0 0 0 0 0 0 0 0 0 0 0 0 0 0 0 0 0 0 0 0 0 0 0 -0 -0 0 0 0 0 0 0 0 0 0 0 0 0 0 0 0 0 0 0
-0 0 0 -0 0 -0 0 0 0 0 0 0 0 0 0 0 0 0 0 0 0 0 0 0 0 0 0 0 0 0 0 0 0 0 0 0 0 0 0 0 0 0 0 0 0 0 0 0 0 0 0 0 0 0
-0 -0 -0 -0 -0 0 0 0 0 0 0 0 0 0 0 0 0 0 0 0 0 0 0 0 0 0 0 0 0 0 0 0 0 0 0 0 0 0 0 0 0 0 0 0 0 0 0 0 0 0 0 0 0 0
0 -0 0 -0 -0 -0 -0 0 -0 0 0 0 0 0 0 0 0 0 0 0 0 0 0 0 0 0 0 0 0 0 0 0 0 0 0 0 -0 -0 0 0 0 0 0 0 0 0 0 0 0 0 0 0 0 0
-0 0 0 0 0 0 0 0 0 0 0 0 0 0 0 0 0 0 0 0 0 0 0 0 0 0 0 0 0 0 0 0 0 0 0 0 0 0 0 0 0 0 0 0 0 0 0 0 0 0 0 0 0 0
-0 -0 0 0 0 0 0 0 0 0 0 0 0 0 0 0 0 0 0 0 0 0 0 0 0 0 0 0 0 0 0 0 0 0 0 0 0 0 0 0 0 0 0 0 0 0 0 0 0 0 0 0 0 0
-0 -0 -0 -0 -0 -0 0 0 0 0 0 0 0 0 0 0 0 0 0 0 0 0 0 0 0 0 0 0 0 0 0 0 0 0 0 0 0 0 0 0 0 0 0 0 0 0 0 0 0 0 0 0 0 0
0 0 -0 -0 0 -0 -0 -0 -0 -0 -0 -0 0 0 0 0 0 0 0 0 0 0 0 0 0 0 0 0 0 0 0 0 0 0 0 0 0 0 0 0 0 0 0 0 0 0 0 0 0 0 0 0 0 0
0 0 0 0 0 0 0 0 0 -0 -0 -0 -0 -0 -0 -0 -0 0 0 0 0 0 0 0 0 0 0 0 0 0 0 0 0 0 0 0 0 0 0 0 0 0 0 0 0 0 0 0 0 0 0 0 0 0
0 0 0 0 0 0 0 0 0 0 0 0 0 0 0 0 -0 0 0 0 0 0 -0 0 0 0 0 0 0 0 0 0 0 0 0 0 0 0 0 0 0 0 0 0 0 0 0 0 0 0 0 0 0 0
0 0 0 0 0 0 0 0 0 0 0 0 0 0 0 0 0 0 0 0 0 0 0 0 0 0 0 0 0 0 0 0 0 0 0 0 0 0 0 0 0 0 0 0 0 0 0 0 0 0 0 0 0 0
0 0 0 0 0 0 0 0 0 0 0 0 0 0 0 0 0 0 0 0 0 0 0 0 0 0 0 0 0 0 0 0 0 0 0 0 0 0 0 0 0 0 0 0 0 0 0 0 0 0 0 0 0 0
Wind_Speed_500mb
26 25 25 26 29 30 29 30 34 32 28 26 32 30 25 24 24 22 21 18 14 12 13 17 16 19 25 20 10 21 13 3 4 6 6 7 4 9 7 15 19 21 18 11 11 8 24 14 3 18 7 12 12 12
31 31 28 25 28 31 32 34 35 35 30 28 30 39 31 27 24 21 25 22 18 14 16 23 22 26 17 12 27 25 4 12 16 5 4 5 6 5 8 8 3 10 12 12 18 14 4 24 4 4 8 12 13 13
25 38 38 30 30 32 33 36 37 36 32 30 32 36 41 30 25 20 22 28 24 16 17 17 15 25 20 20 20 16 10 12 11 9 6 4 6 5 7 8 7 5 5 5 5 10 9 11 11 15 24 31 24 18
27 33 43 39 37 39 38 38 38 38 37 33 33 31 37 39 29 21 25 26 27 17 6 5 17 22 20 19 19 13 26 20 27 17 8 5 4 2 1 3 4 6 13 10 8 8 16 10 5 14 22 27 34 36
22 28 38 40 41 41 41 41 39 37 34 33 32 35 34 38 31 26 20 29 30 10 6 12 13 24 20 29 21 14 17 30 18 8 5 4 8 6 3 4 6 14 12 9 7 5 6 4 12 23 25 27 29 35
18 26 31 37 40 43 41 41 41 38 37 36 34 37 38 37 40 32 10 18 37 21 11 5 9 9 17 25 23 26 21 14 10 10 5 5 7 8 5 6 15 31 29 12 6 2 14 26 34 37 26 23 31 33
17 25 36 35 37 37 38 40 36 35 36 40 38 37 41 44 41 26 12 20 39 37 9 5 5 9 25 25 16 18 26 14 11 9 7 11 8 14 2 11 8 34 33 26 27 28 23 32 19 16 23 35 43 43
22 21 25 27 26 31 32 34 33 31 34 38 41 41 38 37 41 29 19 41 45 21 14 5 3 6 13 11 10 16 16 16 17 8 4 7 12 5 7 44 22 44 39 30 27 34 41 41 47 58 60 60 55 48
32 30 30 31 33 34 32 32 34 33 34 37 37 36 44 38 24 28 31 39 39 10 12 6 8 6 18 10 12 13 14 4 16 5 8 17 5 11 27 26 24 28 35 41 44 48 55 60 60 55 52 50 52 51
36 34 25 31 35 37 37 36 36 39 40 45 48 22 9 26 38 52 32 20 12 7 8 5 13 5 15 12 7 13 10 6 6 12 22 7 12 63 77 7 13 13 19 37 48 55 57 63 59 56 56 55 51 49
41 36 27 27 30 34 40 41 42 47 50 40 12 8 42 68 35 10 12 11 9 5 13 9 14 9 14 6 6 6 4 3 3 8 12 6 9 28 39 50 55 60 53 59 67 71 69 67 66 62 57 55 52 49
39 32 31 23 19 38 45 48 56 57 20 30 27 41 28 10 7 6 6 4 3 9 6 6 8 14 12 8 7 3 3 3 7 1 5 6 5 11 11 4 11 29 44 53 51 58 63 67 66 65 64 65 63 57
33 31 25 21 12 26 39 63 58 39 48 46 13 9 8 6 7 9 7 4 6 8 16 14 5 12 7 8 7 6 5 7 3 4 8 8 14 12 12 9 5 13 22 34 41 41 46 55 60 66 75 76 72 65
30 28 23 21 13 10 53 59 51 44 31 10 6 7 3 6 3 3 5 8 8 11 37 34 14 8 7 5 6 9 8 7 1 3 11 4 8 15 15 18 24 30 34 38 42 41 39 43 51 55 60 62 64 66
27 25 24 22 20 20 35 55 50 42 13 8 7 6 3 7 11 8 8 8 9 27 34 17 10 7 0 6 3 7 7 7 11 10 7 8 5 8 15 22 27 30 33 30 31 35 40 43 44 44 47 48 49 50
32 27 19 17 19 21 19 34 48 23 9 7 9 9 6 5 3 6 8 7 11 18 18 10 6 7 4 8 6 12 12 11 7 5 10 8 11 22 28 28 33 36 40 42 38 35 35 39 42 45 41 40 44 46
21 20 16 25 25 25 22 17 8 9 9 7 5 12 11 15 11 7 7 12 19 14 3 5 9 15 3 5 4 8 10 7 8 5 7 16 23 29 31 32 34 35 37 38 41 42 38 37 36 39 40 38 39 41
31 19 17 22 25 24 22 10 9 9 13 10 2 7 11 12 13 11 10 16 13 7 3 3 2 4 10 12 6 4 10 7 11 13 13 17 23 26 30 33 34 36 36 39 42 42 42 37 36 32 30 30 34 37
24 19 22 27 27 16 8 9 9 10 8 6 11 13 9 10 12 11 11 17 11 10 8 4 6 5 6 5 5 6 8 10 12 21 23 23 23 23 26 28 32 33 34 34 32 32 32 31 30 28 24 25 28 30
8 11 15 22 18 8 11 12 10 11 7 5 8 10 9 8 11 13 12 15 14 7 3 3 5 2 3 2 6 9 12 17 23 28 20 19 24 32 38 38 35 33 32 30 27 25 25 24 21 20 20 20 23 28
16 18 19 19 11 16 14 9 12 10 9 8 11 7 7 10 7 6 5 13 5 4 2 2 2 5 8 10 12 14 16 18 20 23 31 43 35 39 36 32 31 29 27 25 24 20 19 18 19 18 17 19 22 26
11 12 14 16 11 11 15 14 12 9 7 9 6 5 7 5 6 6 3 4 6 2 1 5 13 14 15 16 17 19 20 20 23 25 28 34 36 31 28 27 26 22 20 18 19 20 17 16 14 14 15 16 18 23
17 9 10 12 10 11 7 9 6 7 4 1 4 6 5 5 6 3 2 5 4 5 12 13 13 13 14 14 14 15 15 17 18 20 21 23 23 23 23 21 20 20 19 16 15 14 14 13 11 11 12 14 16 18
14 10 15 14 20 5 5 9 7 6 6 5 3 5 4 7 12 1 3 3 7 13 13 12 11 11 9 9 11 13 14 16 17 17 17 19 20 19 19 18 17 17 17 16 14 11 10 9 9 10 10 11 14 15
9 24 15 14 17 10 11 8 9 7 6 6 4 4 3 9 1 4 2 6 16 17 18 19 16 14 15 14 14 15 16 18 19 19 17 18 19 18 16 15 15 14 14 13 11 10 8 8 9 10 11 13 15 15
16 22 13 9 11 8 5 5 7 4 4 6 4 6 9 5 5 2 4 8 13 19 20 19 18 17 15 15 17 17 20 20 21 21 20 18 19 20 18 18 16 14 13 13 13 12 11 12 12 12 13 14 16 17
11 9 14 16 8 5 7 6 3 4 7 4 5 7 5 6 3 6 7 7 14 19 19 19 20 21 20 19 19 19 21 21 22 23 23 23 21 22 22 21 18 16 16 15 15 15 15 15 16 17 18 18 19 21
9 16 5 15 9 9 5 3 5 3 2 4 4 4 6 9 7 6 7 18 20 21 21 20 19 18 19 20 22 22 23 23 24 25 24 23 20 19 20 20 20 19 18 18 18 18 19 21 20 21 23 23 24 27
10 20 10 8 5 8 9 4 2 1 4 2 3 4 5 5 7 11 15 18 18 17 14 15 17 19 19 19 18 18 20 22 24 23 21 20 18 17 18 16 16 19 20 21 21 21 22 24 26 28 30 31 31 32
14 24 9 7 5 3 3 5 6 10 8 8 9 9 9 5 5 12 16 18 18 17 16 16 16 17 18 20 18 18 19 20 20 23 25 21 22 21 21 21 22 23 23 24 25 27 29 32 34 37 38 37 37 39
17 15 6 3 1 3 10 13 10 8 6 5 9 9 10 11 2 11 18 18 22 24 25 24 22 23 22 22 24 24 19 21 20 22 24 24 24 23 24 27 29 31 31 32 32 33 34 36 38 41 44 46 45 48
15 13 8 6 4 12 10 15 8 5 4 4 4 8 8 8 5 3 11 18 24 31 33 29 29 26 25 24 24 25 25 25 26 28 31 32 31 30 33 34 36 38 39 39 39 40 42 45 47 48 51 52 53 53
9 11 7 8 6 8 13 19 5 8 4 3 3 7 6 5 5 4 10 11 21 36 42 28 28 26 27 31 33 27 26 27 28 29 32 34 34 35 36 37 39 42 45 46 46 47 49 50 53 53 55 57 57 58
Wind_Direction_500mb
197 207 213 216 229 212 207 197 195 191 204 200 198 193 183 185 185 184 149 164 119 82 106 116 120 132 128 127 141 158 105 55 87 133 135 185 132 214 113 157 167 170 174 189 201 225 257 168 126 165 171 125 93 50
220 208 209 219 223 216 207 194 192 192 193 191 191 189 182 174 168 177 159 155 144 100 135 137 137 166 144 104 134 161 87 134 166 134 179 114 131 150 169 196 331 169 181 171 187 209 149 173 101 312 251 264 228 261
241 223 214 210 223 218 206 195 190 188 186 191 186 189 184 181 183 184 162 162 153 103 99 143 154 155 142 160 151 128 151 150 131 99 95 71 133 130 159 239 115 286 166 164 93 234 199 230 269 273 277 265 278 273
234 223 215 211 214 215 200 196 191 187 187 190 179 177 190 187 182 184 182 170 166 126 109 167 174 188 178 152 147 126 147 141 147 114 93 134 156 65 20 163 148 184 135 171 267 276 288 306 356 323 294 283 269 279
229 214 212 211 209 201 195 190 186 186 185 181 185 181 174 178 176 170 164 175 167 146 120 115 161 196 189 203 196 166 145 155 133 95 85 187 124 107 32 40 252 188 178 171 213 152 132 87 9 349 336 322 304 288
216 204 202 197 190 187 184 183 182 182 181 183 183 184 176 173 183 168 114 185 183 141 104 109 128 142 181 191 184 183 169 158 140 130 155 171 157 162 146 225 226 209 218 227 163 272 306 299 302 301 307 308 307 302
205 162 163 170 165 167 175 181 182 185 185 185 183 178 176 181 176 159 178 175 175 188 110 99 104 125 132 138 133 168 183 184 167 154 196 152 183 179 176 241 150 209 220 229 251 274 289 283 269 273 294 304 309 302
190 159 155 156 163 166 167 171 174 178 180 177 179 173 177 176 172 142 95 150 150 124 140 122 108 107 150 130 122 160 161 157 187 179 188 148 119 145 250 242 247 245 252 260 263 272 275 272 275 283 288 289 287 280
186 176 181 174 180 177 176 178 178 178 177 174 171 167 170 174 176 167 143 157 163 146 132 138 135 174 164 123 117 161 159 140 174 194 187 153 181 218 235 245 229 233 237 251 259 261 264 268 274 275 273 273 273 273
185 176 184 189 190 186 184 182 181 177 175 166 161 150 148 145 148 145 146 152 159 184 133 140 128 132 166 146 139 131 177 203 184 210 168 186 238 244 246 240 256 235 243 248 246 250 255 260 264 273 280 281 279 276
178 169 174 182 190 192 184 181 177 167 174 145 128 101 133 141 139 157 146 148 133 145 174 162 147 137 169 129 158 192 168 191 154 239 154 218 255 256 264 259 263 264 260 259 261 264 267 268 274 275 277 281 281 276
159 164 166 164 176 184 178 172 169 174 148 140 129 134 135 109 91 133 123 78 111 182 126 124 127 108 126 142 106 143 147 67 242 170 124 252 278 71 88 180 246 240 240 245 254 260 264 268 273 276 279 281 280 281
142 147 148 144 116 173 189 156 170 138 129 124 121 112 142 129 149 168 126 326 108 154 166 153 106 123 123 145 99 105 130 230 122 133 223 230 121 66 11 341 310 285 277 276 279 279 279 278 276 274 274 273 275 275
135 136 139 119 91 100 150 145 158 144 131 79 70 88 66 123 115 131 140 149 115 154 155 141 115 131 134 83 152 120 225 82 137 244 230 242 28 356 349 347 333 320 312 303 299 299 299 293 287 282 277 273 271 268
135 134 135 123 120 117 129 144 153 150 94 96 118 116 99 126 70 54 75 106 122 136 147 115 78 113 221 99 160 88 46 238 195 218 220 145 68 14 351 343 335 332 329 332 324 315 305 294 287 287 281 273 267 260
155 141 136 144 128 136 140 155 152 123 69 84 70 95 93 65 38 65 74 77 135 139 128 103 118 79 217 154 98 209 142 205 242 207 167 223 291 307 316 325 328 326 321 320 323 318 306 299 295 288 278 268 261 253
137 99 146 172 178 168 161 152 89 66 85 66 59 102 95 75 90 117 118 146 150 151 137 114 112 201 92 93 222 185 192 209 132 171 314 330 330 329 328 327 323 324 325 322 315 311 309 299 293 289 281 274 265 256
117 108 125 158 185 179 142 105 94 72 56 48 11 90 79 99 109 117 121 139 147 147 99 155 309 100 168 169 254 266 37 343 307 304 307 316 318 318 317 319 316 312 312 311 309 309 307 304 296 293 285 274 262 250
160 169 152 145 145 133 95 61 64 89 81 71 90 113 97 98 98 121 138 152 130 120 107 86 95 190 231 42 72 44 360 347 321 318 322 313 312 318 323 319 315 317 316 315 313 306 299 293 290 289 282 266 250 238
152 162 149 167 173 82 81 55 66 79 76 92 89 93 99 99 103 104 119 149 143 119 102 142 203 109 68 49 351 327 318 314 311 313 318 297 308 316 319 319 317 315 312 311 309 306 300 293 284 275 262 250 236 229
103 106 133 153 98 70 84 82 68 77 95 87 104 61 73 82 86 79 90 126 106 69 33 17 352 344 328 314 308 304 300 301 302 297 295 301 305 308 312 311 311 312 312 310 310 307 299 291 286 276 249 232 227 225
155 115 96 79 79 76 75 61 93 92 90 101 72 75 68 63 41 23 72 67 76 95 333 339 330 326 319 314 315 308 304 305 303 302 299 299 306 307 305 306 307 307 310 308 302 302 298 288 275 256 244 239 224 214
127 109 65 55 86 61 56 66 81 51 87 88 114 116 50 58 353 9 122 63 60 7 336 327 326 327 327 324 324 324 325 329 328 324 322 316 313 313 311 310 305 305 305 307 299 295 291 282 266 247 232 222 220 215
101 61 36 42 35 56 53 46 57 68 67 31 26 95 47 334 347 58 84 72 4 346 345 340 327 327 327 324 320 321 320 318 323 322 324 324 318 317 316 312 305 303 305 309 303 297 283 266 249 237 229 223 221 217
80 14 25 9 21 36 36 21 3 39 63 352 42 45 11 339 47 45 26 355 347 350 351 349 339 320 306 304 308 310 312 308 307 311 314 314 314 311 312 313 313 309 302 301 295 290 280 257 237 228 224 222 226 227
67 14 39 344 5 61 327 54 27 12 17 38 22 325 355 34 60 276 263 320 334 345 345 342 333 320 310 304 307 306 308 306 306 308 308 306 308 305 304 309 307 304 303 291 281 276 267 258 252 246 242 240 243 247
55 347 15 29 27 38 52 58 68 67 55 40 320 0 35 62 281 262 310 327 335 339 337 331 326 322 318 311 305 305 305 303 300 298 294 293 293 295 291 290 293 294 294 295 286 278 274 270 265 263 261 262 264 265
75 30 60 347 19 38 119 37 50 56 308 350 344 27 141 179 231 325 322 326 325 324 323 322 320 316 313 311 310 309 308 306 303 303 303 303 301 294 289 285 282 284 285 287 284 284 277 273 272 272 272 271 269 270
38 359 358 358 37 52 44 100 203 310 326 271 159 268 263 256 306 330 339 338 338 336 329 323 325 327 327 324 321 316 311 308 307 307 306 308 306 296 296 297 290 286 282 279 279 280 280 279 276 275 274 275 276 277
2 358 5 17 67 10 3 359 321 315 292 271 279 287 286 279 355 359 1 2 5 5 359 354 348 342 339 333 332 325 320 314 310 306 306 306 301 302 303 301 298 296 295 293 288 284 284 284 288 289 290 289 287 285
349 349 333 339 187 359 340 332 324 316 299 280 284 276 296 311 327 16 20 33 33 29 22 12 1 347 342 333 328 327 329 314 317 311 307 306 303 300 294 291 290 290 290 289 288 286 284 283 283 282 282 284 285 285
342 1 359 348 331 343 341 347 323 312 292 297 295 313 321 314 300 55 35 31 29 16 2 355 356 354 352 351 343 332 322 313 305 300 299 300 299 297 294 292 292 291 291 290 289 288 287 287 286 285 286 287 288 288
322 346 339 322 316 355 350 341 339 342 272 279 300 320 327 314 270 339 303 326 348 353 352 348 348 345 341 341 340 336 332 328 321 314 309 304 301 297 292 289 288 287 288 288 287 286 286 286 286 287 287 288 288 288
Wind_Speed_850mb
26 25 25 26 29 30 29 30 34 32 28 26 32 30 25 24 24 22 21 18 14 12 13 17 16 19 25 20 10 21 13 3 4 6 6 7 4 9 7 15 19 21 18 11 11 8 24 14 3 18 7 12 12 12
31 31 28 25 28 31 32 34 35 35 30 28 30 39 31 27 24 21 25 22 18 14 16 23 22 26 17 12 27 25 4 12 16 5 4 5 6 5 8 8 3 10 12 12 18 14 4 24 4 4 8 12 13 13
25 38 38 30 30 32 33 36 37 36 32 30 32 36 41 30 25 20 22 28 24 16 17 17 15 25 20 20 20 16 10 12 11 9 6 4 6 5 7 8 7 5 5 5 5 10 9 11 11 15 24 31 24 18
27 33 43 39 37 39 38 38 38 38 37 33 33 31 37 39 29 21 25 26 27 17 6 5 17 22 20 19 19 13 26 20 27 17 8 5 4 2 1 3 4 6 13 10 8 8 16 10 5 14 22 27 34 36
22 28 38 40 41 41 41 41 39 37 34 33 32 35 34 38 31 26 20 29 30 10 6 12 13 24 20 29 21 14 17 30 18 8 5 4 8 6 3 4 6 14 12 9 7 5 6 4 12 23 25 27 29 35
18 26 31 37 40 43 41 41 41 38 37 36 34 37 38 37 40 32 10 18 37 21 11 5 9 9 17 25 23 26 21 14 10 10 5 5 7 8 5 6 15 31 29 12 6 2 14 26 34 37 26 23 31 33
17 25 36 35 37 37 38 40 36 35 36 40 38 37 41 44 41 26 12 20 39 37 9 5 5 9 25 25 16 18 26 14 11 9 7 11 8 14 2 11 8 34 33 26 27 28 23 32 19 16 23 35 43 43
22 21 25 27 26 31 32 34 33 31 34 38 41 41 38 37 41 29 19 41 45 21 14 5 3 6 13 11 10 16 16 16 17 8 4 7 12 5 7 44 22 44 39 30 27 34 41 41 47 58 60 60 55 48
32 30 30 31 33 34 32 32 34 33 34 37 37 36 44 38 24 28 31 39 39 10 12 6 8 6 18 10 12 13 14 4 16 5 8 17 5 11 27 26 24 28 35 41 44 48 55 60 60 55 52 50 52 51
36 34 25 31 35 37 37 36 36 39 40 45 48 22 9 26 38 52 32 20 12 7 8 5 13 5 15 12 7 13 10 6 6 12 22 7 12 63 77 7 13 13 19 37 48 55 57 63 59 56 56 55 51 49
41 36 27 27 30 34 40 41 42 47 50 40 12 8 42 68 35 10 12 11 9 5 13 9 14 9 14 6 6 6 4 3 3 8 12 6 9 28 39 50 55 60 53 59 67 71 69 67 66 62 57 55 52 49
39 32 31 23 19 38 45 48 56 57 20 30 27 41 28 10 7 6 6 4 3 9 6 6 8 14 12 8 7 3 3 3 7 1 5 6 5 11 11 4 11 29 44 53 51 58 63 67 66 65 64 65 63 57
33 31 25 21 12 26 39 63 58 39 48 46 13 9 8 6 7 9 7 4 6 8 16 14 5 12 7 8 7 6 5 7 3 4 8 8 14 12 12 9 5 13 22 34 41 41 46 55 60 66 75 76 72 65
30 28 23 21 13 10 53 59 51 44 31 10 6 7 3 6 3 3 5 8 8 11 37 34 14 8 7 5 6 9 8 7 1 3 11 4 8 15 15 18 24 30 34 38 42 41 39 43 51 55 60 62 64 66
27 25 24 22 20 20 35 55 50 42 13 8 7 6 3 7 11 8 8 8 9 27 34 17 10 7 0 6 3 7 7 7 11 10 7 8 5 8 15 22 27 30 33 30 31 35 40 43 44 44 47 48 49 50
32 27 19 17 19 21 19 34 48 23 9 7 9 9 6 5 3 6 8 7 11 18 18 10 6 7 4 8 6 12 12 11 7 5 10 8 11 22 28 28 33 36 40 42 38 35 35 39 42 45 41 40 44 46
21 20 16 25 25 25 22 17 8 9 9 7 5 12 11 15 11 7 7 12 19 14 3 5 9 15 3 5 4 8 10 7 8 5 7 16 23 29 31 32 34 35 37 38 41 42 38 37 36 39 40 38 39 41
31 19 17 22 25 24 22 10 9 9 13 10 2 7 11 12 13 11 10 16 13 7 3 3 2 4 10 12 6 4 10 7 11 13 13 17 23 26 30 33 34 36 36 39 42 42 42 37 36 32 30 30 34 37
24 19 22 27 27 16 8 9 9 10 8 6 11 13 9 10 12 11 11 17 11 10 8 4 6 5 6 5 5 6 8 10 12 21 23 23 23 23 26 28 32 33 34 34 32 32 32 31 30 28 24 25 28 30
8 11 15 22 18 8 11 12 10 11 7 5 8 10 9 8 11 13 12 15 14 7 3 3 5 2 3 2 6 9 12 17 23 28 20 19 24 32 38 38 35 33 32 30 27 25 25 24 21 20 20 20 23 28
16 18 19 19 11 16 14 9 12 10 9 8 11 7 7 10 7 6 5 13 5 4 2 2 2 5 8 10 12 14 16 18 20 23 31 43 35 39 36 32 31 29 27 25 24 20 19 18 19 18 17 19 22 26
11 12 14 16 11 11 15 14 12 9 7 9 6 5 7 5 6 6 3 4 6 2 1 5 13 14 15 16 17 19 20 20 23 25 28 34 36 31 28 27 26 22 20 18 19 20 17 16 14 14 15 16 18 23
17 9 10 12 10 11 7 9 6 7 4 1 4 6 5 5 6 3 2 5 4 5 12 13 13 13 14 14 14 15 15 17 18 20 21 23 23 23 23 21 20 20 19 16 15 14 14 13 11 11 12 14 16 18
14 10 15 14 20 5 5 9 7 6 6 5 3 5 4 7 12 1 3 3 7 13 13 12 11 11 9 9 11 13 14 16 17 17 17 19 20 19 19 18 17 17 17 16 14 11 10 9 9 10 10 11 14 15
9 24 15 14 17 10 11 8 9 7 6 6 4 4 3 9 1 4 2 6 16 17 18 19 16 14 15 14 14 15 16 18 19 19 17 18 19 18 16 15 15 14 14 13 11 10 8 8 9 10 11 13 15 15
16 22 13 9 11 8 5 5 7 4 4 6 4 6 9 5 5 2 4 8 13 19 20 19 18 17 15 15 17 17 20 20 21 21 20 18 19 20 18 18 16 14 13 13 13 12 11 12 12 12 13 14 16 17
11 9 14 16 8 5 7 6 3 4 7 4 5 7 5 6 3 6 7 7 14 19 19 19 20 21 20 19 19 19 21 21 22 23 23 23 21 22 22 21 18 16 16 15 15 15 15 15 16 17 18 18 19 21
9 16 5 15 9 9 5 3 5 3 2 4 4 4 6 9 7 6 7 18 20 21 21 20 19 18 19 20 22 22 23 23 24 25 24 23 20 19 20 20 20 19 18 18 18 18 19 21 20 21 23 23 24 27
10 20 10 8 5 8 9 4 2 1 4 2 3 4 5 5 7 11 15 18 18 17 14 15 17 19 19 19 18 18 20 22 24 23 21 20 18 17 18 16 16 19 20 21 21 21 22 24 26 28 30 31 31 32
14 24 9 7 5 3 3 5 6 10 8 8 9 9 9 5 5 12 16 18 18 17 16 16 16 17 18 20 18 18 19 20 20 23 25 21 22 21 21 21 22 23 23 24 25 27 29 32 34 37 38 37 37 39
17 15 6 3 1 3 10 13 10 8 6 5 9 9 10 11 2 11 18 18 22 24 25 24 22 23 22 22 24 24 19 21 20 22 24 24 24 23 24 27 29 31 31 32 32 33 34 36 38 41 44 46 45 48
15 13 8 6 4 12 10 15 8 5 4 4 4 8 8 8 5 3 11 18 24 31 33 29 29 26 25 24 24 25 25 25 26 28 31 32 31 30 33 34 36 38 39 39 39 40 42 45 47 48 51 52 53 53
9 11 7 8 6 8 13 19 5 8 4 3 3 7 6 5 5 4 10 11 21 36 42 28 28 26 27 31 33 27 26 27 28 29 32 34 34 35 36 37 39 42 45 46 46 47 49 50 53 53 55 57 57 58
Wind_Direction_850mb
197 207 213 216 229 212 207 197 195 191 204 200 198 193 183 185 185 184 149 164 119 82 106 116 120 132 128 127 141 158 105 55 87 133 135 185 132 214 113 157 167 170 174 189 201 225 257 168 126 165 171 125 93 50
220 208 209 219 223 216 207 194 192 192 193 191 191 189 182 174 168 177 159 155 144 100 135 137 137 166 144 104 134 161 87 134 166 134 179 114 131 150 169 196 331 169 181 171 187 209 149 173 101 312 251 264 228 261
241 223 214 210 223 218 206 195 190 188 186 191 186 189 184 181 183 184 162 162 153 103 99 143 154 155 142 160 151 128 151 150 131 99 95 71 133 130 159 239 115 286 166 164 93 234 199 230 269 273 277 265 278 273
234 223 215 211 214 215 200 196 191 187 187 190 179 177 190 187 182 184 182 170 166 126 109 167 174 188 178 152 147 126 147 141 147 114 93 134 156 65 20 163 148 184 135 171 267 276 288 306 356 323 294 283 269 279
229 214 212 211 209 201 195 190 186 186 185 181 185 181 174 178 176 170 164 175 167 146 120 115 161 196 189 203 196 166 145 155 133 95 85 187 124 107 32 40 252 188 178 171 213 152 132 87 9 349 336 322 304 288
216 204 202 197 190 187 184 183 182 182 181 183 183 184 176 173 183 168 114 185 183 141 104 109 128 142 181 191 184 183 169 158 140 130 155 171 157 162 146 225 226 209 218 227 163 272 306 299 302 301 307 308 307 302
205 162 163 170 165 167 175 181 182 185 185 185 183 178 176 181 176 159 178 175 175 188 110 99 104 125 132 138 133 168 183 184 167 154 196 152 183 179 176 241 150 209 220 229 251 274 289 283 269 273 294 304 309 302
190 159 155 156 163 166 167 171 174 178 180 177 179 173 177 176 172 142 95 150 150 124 140 122 108 107 150 130 122 160 161 157 187 179 188 148 119 145 250 242 247 245 252 260 263 272 275 272 275 283 288 289 287 280
186 176 181 174 180 177 176 178 178 178 177 174 171 167 170 174 176 167 143 157 163 146 132 138 135 174 164 123 117 161 159 140 174 194 187 153 181 218 235 245 229 233 237 251 259 261 264 268 274 275 273 273 273 273
185 176 184 189 190 186 184 182 181 177 175 166 161 150 148 145 148 145 146 152 159 184 133 140 128 132 166 146 139 131 177 203 184 210 168 186 238 244 246 240 256 235 243 248 246 250 255 260 264 273 280 281 279 276
178 169 174 182 190 192 184 181 177 167 174 145 128 101 133 141 139 157 146 148 133 145 174 162 147 137 169 129 158 192 168 191 154 239 154 218 255 256 264 259 263 264 260 259 261 264 267 268 274 275 277 281 281 276
159 164 166 164 176 184 178 172 169 174 148 140 129 134 135 109 91 133 123 78 111 182 126 124 127 108 126 142 106 143 147 67 242 170 124 252 278 71 88 180 246 240 240 245 254 260 264 268 273 276 279 281 280 281
142 147 148 144 116 173 189 156 170 138 129 124 121 112 142 129 149 168 126 326 108 154 166 153 106 123 123 145 99 105 130 230 122 133 223 230 121 66 11 341 310 285 277 276 279 279 279 278 276 274 274 273 275 275
135 136 139 119 91 100 150 145 158 144 131 79 70 88 66 123 115 131 140 149 115 154 155 141 115 131 134 83 152 120 225 82 137 244 230 242 28 356 349 347 333 320 312 303 299 299 299 293 287 282 277 273 271 268
135 134 135 123 120 117 129 144 153 150 94 96 118 116 99 126 70 54 75 106 122 136 147 115 78 113 221 99 160 88 46 238 195 218 220 145 68 14 351 343 335 332 329 332 324 315 305 294 287 287 281 273 267 260
155 141 136 144 128 136 140 155 152 123 69 84 70 95 93 65 38 65 74 77 135 139 128 103 118 79 217 154 98 209 142 205 242 207 167 223 291 307 316 325 328 326 321 320 323 318 306 299 295 288 278 268 261 253
137 99 146 172 178 168 161 152 89 66 85 66 59 102 95 75 90 117 118 146 150 151 137 114 112 201 92 93 222 185 192 209 132 171 314 330 330 329 328 327 323 324 325 322 315 311 309 299 293 289 281 274 265 256
117 108 125 158 185 179 142 105 94 72 56 48 11 90 79 99 109 117 121 139 147 147 99 155 309 100 168 169 254 266 37 343 307 304 307 316 318 318 317 319 316 312 312 311 309 309 307 304 296 293 285 274 262 250
160 169 152 145 145 133 95 61 64 89 81 71 90 113 97 98 98 121 138 152 130 120 107 86 95 190 231 42 72 44 360 347 321 318 322 313 312 318 323 319 315 317 316 315 313 306 299 293 290 289 282 266 250 238
152 162 149 167 173 82 81 55 66 79 76 92 89 93 99 99 103 104 119 149 143 119 102 142 203 109 68 49 351 327 318 314 311 313 318 297 308 316 319 319 317 315 312 311 309 306 300 293 284 275 262 250 236 229
103 106 133 153 98 70 84 82 68 77 95 87 104 61 73 82 86 79 90 126 106 69 33 17 352 344 328 314 308 304 300 301 302 297 295 301 305 308 312 311 311 312 312 310 310 307 299 291 286 276 249 232 227 225
155 115 96 79 79 76 75 61 93 92 90 101 72 75 68 63 41 23 72 67 76 95 333 339 330 326 319 314 315 308 304 305 303 302 299 299 306 307 305 306 307 307 310 308 302 302 298 288 275 256 244 239 224 214
127 109 65 55 86 61 56 66 81 51 87 88 114 116 50 58 353 9 122 63 60 7 336 327 326 327 327 324 324 324 325 329 328 324 322 316 313 313 311 310 305 305 305 307 299 295 291 282 266 247 232 222 220 215
101 61 36 42 35 56 53 46 57 68 67 31 26 95 47 334 347 58 84 72 4 346 345 340 327 327 327 324 320 321 320 318 323 322 324 324 318 317 316 312 305 303 305 309 303 297 283 266 249 237 229 223 221 217
80 14 25 9 21 36 36 21 3 39 63 352 42 45 11 339 47 45 26 355 347 350 351 349 339 320 306 304 308 310 312 308 307 311 314 314 314 311 312 313 313 309 302 301 295 290 280 257 237 228 224 222 226 227
67 14 39 344 5 61 327 54 27 12 17 38 22 325 355 34 60 276 263 320 334 345 345 342 333 320 310 304 307 306 308 306 306 308 308 306 308 305 304 309 307 304 303 291 281 276 267 258 252 246 242 240 243 247
55 347 15 29 27 38 52 58 68 67 55 40 320 0 35 62 281 262 310 327 335 339 337 331 326 322 318 311 305 305 305 303 300 298 294 293 293 295 291 290 293 294 294 295 286 278 274 270 265 263 261 262 264 265
75 30 60 347 19 38 119 37 50 56 308 350 344 27 141 179 231 325 322 326 325 324 323 322 320 316 313 311 310 309 308 306 303 303 303 303 301 294 289 285 282 284 285 287 284 284 277 273 272 272 272 271 269 270
38 359 358 358 37 52 44 100 203 310 326 271 159 268 263 256 306 330 339 338 338 336 329 323 325 327 327 324 321 316 311 308 307 307 306 308 306 296 296 297 290 286 282 279 279 280 280 279 276 275 274 275 276 277
2 358 5 17 67 10 3 359 321 315 292 271 279 287 286 279 355 359 1 2 5 5 359 354 348 342 339 333 332 325 320 314 310 306 306 306 301 302 303 301 298 296 295 293 288 284 284 284 288 289 290 289 287 285
349 349 333 339 187 359 340 332 324 316 299 280 284 276 296 311 327 16 20 33 33 29 22 12 1 347 342 333 328 327 329 314 317 311 307 306 303 300 294 291 290 290 290 289 288 286 284 283 283 282 282 284 285 285
342 1 359 348 331 343 341 347 323 312 292 297 295 313 321 314 300 55 35 31 29 16 2 355 356 354 352 351 343 332 322 313 305 300 299 300 299 297 294 292 292 291 291 290 289 288 287 287 286 285 286 287 288 288
322 346 339 322 316 355 350 341 339 342 272 279 300 320 327 314 270 339 303 326 348 353 352 348 348 345 341 341 340 336 332 328 321 314 309 304 301 297 292 289 288 287 288 288 287 286 286 286 286 287 287 288 288 288